SCP
0 0 0 0 0 0 0 0 0 0 0 0 0 0 0 0 0 0 0 0 0 0 0 0 -0 -0 0 0 0 0 0 0 0 0 0 0 0 0 0 -0 0 0 0 0 0 0 0 0 0 0 0 0 0 0
0 0 0 0 0 0 0 0 0 0 0 0 0 -0 0 0 0 0 0 0 0 0 0 -0 -0 -0 -0 0 0 0 -0 -0 -0 0 -0 -0 0 0 0 0 -0 0 0 0 0 0 0 0 0 0 0 -0 0 0
0 0 0 0 0 0 0 0 0 0 0 0 0 0 0 0 0 0 0 0 0 0 0 0 -0 -0 0 0 0 0 0 -0 0 0 -0 -0 0 -0 -0 0 0 -0 -0 0 0 0 0 0 0 0 0 0 0 0
0 0 0 0 0 0 0 0 0 0 0 0 -0 -0 0 0 0 0 0 0 0 0 0 0 -0 0 -0 0 0 0 0 0 0 0 -0 0 0 -0 0 0 0 0 -0 0 0 0 0 0 0 0 0 -0 0 0
0 0 0 0 0 0 0 0 0 0 0 -0 -0 -0 -0 -0 -0 0 0 0 0 0 0 0 -0 0 -0 0 0 0 0 -0 -0 -0 -0 0 0 0 -0 0 -0 0 0 0 0 0 0 0 0 0 -0 0 0 -0
0 0 0 0 0 0 0 0 0 0 0 -0 -0 -0 -0 -0 -0 0 0 0 0 0 0 0 -0 -0 -0 0 -0 0 0 -0 0 -0 0 -0 -0 0 0 0 0 0 0 0 0 0 0 0 0 0 -0 -0 -0 -0
0 0 0 0 0 0 0 0 0 0 -0 -0 -0 -0 -0 -0 0 0 0 0 0 0 0 0 -0 -0 -0 -0 0 0 0 -0 0 -0 -0 -0 -0 -0 0 0 0 0 0 0 0 0 0 0 0 0 0 0 -0 -0
0 0 0 0 0 0 0 0 0 -0 -0 -0 -0 -0 -0 -0 0 0 0 0 0 0 0 0 -0 -0 -0 0 -0 0 0 0 -0 0 0 -0 0 0 0 0 0 0 0 0 0 0 0 0 0 0 0 0 0 0
0 0 0 0 0 0 0 0 0 -0 -0 0 -0 -0 0 0 0 0 0 0 0 0 0 0 0 -0 -0 -0 -0 -0 0 -0 -0 -0 -0 0 -0 0 0 0 0 0 0 0 0 0 0 0 0 0 0 0 0 0
0 0 0 0 0 0 0 0 0 -0 0 0 0 0 0 0 0 0 0 0 0 0 0 0 -0 -0 -0 0 0 -0 0 -0 -0 -0 -0 -0 -0 -0 -0 0 0 0 0 0 0 0 0 0 0 -0 -0 -0 -0 0
0 0 0 0 0 0 0 0 0 0 0 0 0 0 0 0 0 0 0 0 0 0 0 0 -0 -0 -0 -0 -0 0 -0 0 -0 -0 -0 -0 0 0 0 0 -0 -0 -0 -0 -0 -0 -0 -0 -0 -0 -0 0 0 0
0 0 0 0 0 0 0 0 0 0 0 0 0 0 0 0 0 0 0 0 0 0 0 0 0 -0 -0 -0 -0 0 0 -0 -0 0 0 -0 -0 -0 0 0 0 0 0 0 0 0 0 0 -0 0 -0 -0 -0 -0
0 0 0 0 0 0 0 0 0 0 0 0 0 0 0 0 0 0 0 0 0 0 0 0 0 -0 -0 -0 -0 0 0 0 0 0 -0 0 -0 -0 0 0 0 0 -0 -0 -0 -0 0 0 0 -0 -0 -0 -0 -0
0 0 0 0 0 0 0 0 0 0 0 0 0 0 0 0 0 0 0 0 0 0 0 0 0 0 -0 0 -0 0 0 0 0 0 0 -0 -0 -0 0 -0 -0 -0 -0 -0 -0 -0 -0 -0 -0 -0 -0 -0 -0 -0
0 0 0 0 0 0 0 0 0 0 0 0 0 0 0 -0 -0 0 0 0 0 0 0 0 0 0 -0 -0 0 0 0 0 0 0 0 -0 -0 -0 -0 0 -0 -0 -0 0 0 -0 -0 -0 -0 -0 -0 0 0 0
0 0 0 0 0 0 0 0 0 0 0 0 0 0 -0 0 0 0 0 0 0 0 0 0 0 0 0 0 0 0 0 0 0 0 0 0 -0 -0 -0 0 0 0 0 0 0 -0 -0 -0 -0 -0 0 0 0 0
0 0 0 0 0 0 0 0 0 0 0 0 0 0 -0 0 -0 0 0 0 0 0 0 0 0 0 0 0 0 0 0 0 0 0 0 0 0 0 0 0 0 -0 -0 -0 -0 -0 -0 0 0 0 0 0 0 0
0 0 0 0 0 0 0 0 0 0 0 0 0 0 0 0 0 0 0 0 0 0 0 0 0 0 0 0 0 0 0 0 0 0 0 0 0 0 0 0 0 -0 -0 -0 0 0 0 0 0 0 0 0 0 0
0 0 0 0 0 0 0 0 0 0 0 0 0 0 0 0 0 -0 0 0 0 0 0 0 0 0 0 0 0 0 0 0 0 0 0 0 0 0 0 0 0 -0 -0 -0 0 0 0 0 0 0 0 -0 -0 -0
0 0 0 0 0 0 0 0 0 0 0 0 0 0 0 0 0 0 0 0 0 0 0 0 0 0 0 0 0 0 0 0 0 0 0 0 0 -0 -0 0 0 0 0 0 0 0 0 0 0 -0 0 0 0 -0
0 0 0 0 0 0 0 0 0 0 0 0 0 0 0 0 0 0 0 0 0 0 0 0 -0 0 0 0 0 0 0 0 0 0 0 0 0 0 0 0 0 0 0 0 0 0 -0 0 0 0 0 -0 0 -0
0 0 0 0 0 0 0 0 0 0 0 0 0 0 0 -0 0 0 0 0 0 0 0 0 0 0 0 0 0 0 0 0 0 0 0 0 0 0 0 0 0 0 0 0 -0 -0 -0 0 0 0 -0 0 0 -0
0 0 0 0 0 0 0 0 0 0 0 0 0 0 -0 -0 0 0 0 0 0 0 0 0 0 -0 0 0 0 0 0 0 0 0 0 0 0 0 0 0 0 0 0 -0 -0 -0 0 0 0 0 0 0 -0 -0
0 0 0 0 0 0 0 0 0 0 0 0 0 0 -0 0 0 0 0 0 0 0 0 0 0 0 0 0 0 0 0 0 0 0 0 0 0 0 0 0 -0 0 0 -0 -0 0 0 0 0 -0 0 0 -0 -0
0 0 0 0 0 0 0 0 0 0 -0 0 0 0 -0 0 0 0 0 0 0 0 0 0 0 0 0 0 0 0 -0 0 0 0 0 0 0 0 -0 0 0 0 0 0 0 0 0 0 0 -0 -0 0 -0 0
0 0 0 0 0 0 0 0 0 0 0 0 0 -0 -0 0 0 0 0 0 0 0 0 0 0 0 0 0 0 0 0 0 -0 0 0 0 0 0 0 0 0 0 0 0 0 0 0 0 -0 -0 0 0 0 0
0 0 0 0 0 0 0 -0 -0 0 0 0 0 -0 0 0 0 0 0 0 0 0 0 0 -0 -0 0 0 0 0 -0 -0 0 0 -0 0 0 0 0 0 0 0 0 0 0 0 0 0 0 0 0 0 0 0
0 0 0 0 0 0 0 -0 -0 0 0 0 -0 -0 0 0 0 0 0 0 0 0 0 -0 -0 -0 -0 -0 -0 0 -0 0 0 0 0 0 0 0 0 0 0 0 0 0 0 0 0 0 0 0 0 0 0 0
0 0 0 0 0 0 -0 -0 -0 -0 0 0 0 0 0 0 0 0 0 0 0 -0 0 0 -0 -0 -0 0 0 -0 -0 -0 -0 0 0 0 0 0 0 0 0 0 0 0 0 0 0 0 0 0 0 0 0 0
0 0 0 0 -0 -0 -0 -0 0 0 0 0 -0 0 0 0 -0 0 0 0 0 0 0 0 -0 -0 -0 -0 -0 -0 -0 -0 -0 -0 -0 -0 -0 -0 0 0 0 0 0 0 0 0 0 0 0 0 0 0 0 0
0 0 0 -0 -0 -0 0 0 0 0 0 0 0 -0 0 0 0 0 -0 -0 0 0 0 0 0 0 -0 0 -0 -0 -0 -0 -0 -0 -0 0 0 0 0 -0 0 0 0 0 0 0 0 0 0 0 0 0 0 0
0 -0 -0 0 0 0 0 0 0 0 0 0 0 0 -0 0 0 0 0 0 0 0 0 0 0 0 0 -0 -0 0 -0 0 -0 0 -0 -0 0 0 -0 0 0 0 0 0 0 0 0 0 0 0 0 0 0 0
-0 0 0 0 0 0 0 0 0 0 0 0 0 0 0 0 0 0 0 0 0 0 0 0 0 0 0 0 0 0 -0 0 0 -0 -0 -0 -0 -0 -0 0 0 0 0 0 0 0 0 0 0 0 0 0 0 0
Wind_Speed_500mb
59 55 52 54 52 49 45 42 40 41 43 41 37 39 37 34 32 31 28 21 21 21 55 24 30 57 50 44 15 40 20 8 8 16 10 9 8 11 8 8 15 13 12 9 6 9 8 54 34 11 25 60 42 54
55 54 54 56 53 49 44 40 39 40 44 39 37 37 37 34 33 29 23 24 35 36 57 52 35 36 42 33 38 17 14 14 10 6 7 6 6 8 15 9 20 11 13 7 14 7 17 38 35 43 53 72 49 59
55 56 56 57 56 52 43 41 39 41 41 39 38 36 36 34 33 31 35 22 30 31 45 24 24 22 12 19 25 9 7 10 9 13 7 5 5 7 10 12 9 21 40 8 4 11 25 56 68 64 60 65 62 62
60 55 59 57 52 52 39 37 40 44 41 38 37 35 36 34 34 30 29 11 23 23 10 24 33 24 22 16 14 25 28 24 20 10 4 5 6 20 8 12 13 13 24 10 6 11 17 56 53 52 70 67 67 63
60 65 53 53 49 40 37 39 41 42 40 38 36 34 32 33 29 26 13 6 21 14 12 34 41 17 22 8 8 23 17 16 5 3 5 6 8 7 11 9 15 22 9 8 6 13 21 26 37 50 78 66 63 67
65 60 49 50 43 35 40 37 38 38 38 35 33 33 30 26 18 12 5 12 17 19 13 9 26 21 25 11 5 22 13 17 29 11 11 9 20 3 8 7 18 31 31 4 9 39 43 47 50 51 67 64 61 61
62 55 55 44 36 35 34 34 34 36 35 30 30 30 24 19 14 11 1 1 7 18 8 13 11 25 23 11 5 24 21 28 17 12 9 12 30 20 6 7 23 24 21 29 33 38 37 36 38 54 65 59 59 54
63 56 40 37 36 30 30 28 33 34 30 26 29 25 16 9 9 10 12 10 14 13 10 8 10 21 19 30 8 17 10 14 32 12 21 23 17 17 10 14 20 32 42 44 39 44 50 48 46 49 49 47 48 49
55 47 37 35 31 30 25 26 30 31 24 23 20 13 6 9 9 9 19 22 14 13 12 7 9 10 31 38 22 4 13 1 12 16 15 12 12 10 10 19 22 26 29 33 33 34 33 35 36 36 35 36 41 40
59 42 35 33 29 25 22 24 28 22 15 9 6 3 10 4 10 19 7 8 11 13 13 10 21 21 30 31 15 22 15 2 4 7 17 10 8 16 17 15 16 19 28 27 30 30 30 28 29 30 30 32 35 34
39 39 36 29 24 20 21 20 20 11 8 9 7 3 5 13 4 5 8 10 10 8 12 14 20 20 30 15 14 10 2 6 3 8 7 6 3 10 15 20 22 24 28 29 29 31 34 32 33 32 31 30 30 29
38 38 30 27 21 18 18 19 15 4 8 9 13 17 10 7 8 9 8 9 12 4 8 9 15 24 13 10 6 9 4 4 5 15 6 7 8 18 6 7 15 20 23 25 26 29 29 29 28 30 30 29 28 28
36 34 30 23 19 18 17 18 15 7 8 3 6 6 10 10 1 12 11 4 3 5 6 15 12 18 8 8 9 5 5 5 5 5 5 8 38 31 21 17 15 16 20 24 26 26 27 27 26 27 29 28 26 25
36 30 25 23 20 16 18 17 11 3 4 6 11 7 9 11 12 11 6 7 10 13 14 17 19 5 12 6 6 6 2 1 5 4 5 19 45 38 30 24 22 21 21 23 24 24 25 25 26 25 25 25 26 27
33 30 26 20 13 15 13 13 9 7 4 8 12 8 15 21 10 10 11 7 6 8 12 12 12 8 7 7 6 6 5 1 5 5 13 44 48 45 39 32 26 24 23 22 21 22 23 23 24 24 23 23 24 25
30 25 22 14 12 13 13 10 7 8 7 10 14 17 22 8 12 11 4 4 3 5 12 8 5 6 6 5 6 4 4 5 4 6 39 52 47 43 41 33 26 24 22 23 21 21 22 21 22 24 23 22 23 23
25 11 15 14 13 13 14 14 11 10 10 11 15 25 29 15 11 14 5 9 1 5 3 8 7 6 5 5 2 4 2 6 14 31 50 48 49 48 45 36 27 25 24 22 22 22 23 23 23 23 24 23 22 20
12 18 18 13 15 8 8 13 10 12 15 23 21 21 21 14 14 6 7 6 7 7 8 5 10 5 5 2 1 6 10 14 20 33 46 52 47 48 42 36 31 27 25 23 23 25 23 22 21 21 23 23 21 20
25 23 17 16 22 17 11 11 16 11 20 26 25 20 17 16 14 12 10 5 4 2 7 8 8 6 3 2 10 8 12 15 28 33 38 41 40 41 40 38 34 30 25 24 23 21 19 15 15 18 18 19 16 17
32 27 17 15 25 8 9 10 14 14 12 13 20 21 21 22 13 10 17 9 6 4 5 6 4 6 2 2 3 7 8 25 37 32 29 34 40 43 42 40 35 32 25 20 18 20 16 15 14 14 15 16 14 16
18 10 14 17 10 9 8 8 10 13 18 21 17 20 21 18 29 20 15 16 11 7 6 14 10 4 3 4 6 13 13 23 38 40 48 40 43 44 44 38 36 31 27 23 20 19 18 17 17 13 15 15 14 16
14 8 10 11 8 8 13 18 14 8 11 22 21 18 22 21 19 24 19 16 10 19 18 14 10 7 10 9 4 11 16 22 26 33 44 47 47 48 45 44 42 33 24 23 21 19 17 21 19 16 17 16 16 16
14 16 8 12 11 12 12 16 17 20 8 6 20 23 16 24 17 22 9 22 23 19 17 17 12 22 12 10 8 11 21 26 28 36 40 43 39 38 40 39 33 27 27 24 19 22 17 24 24 16 18 17 20 15
18 9 8 12 19 10 12 14 12 15 14 18 9 14 21 7 8 12 11 13 15 23 18 19 22 21 20 17 15 20 21 20 24 30 37 40 39 35 32 33 32 25 24 22 18 21 13 13 14 22 22 19 21 17
7 10 9 9 12 11 9 14 20 14 18 18 17 12 17 11 7 9 13 19 31 28 29 23 23 24 21 22 18 18 24 24 33 28 35 31 28 29 30 26 28 25 25 24 22 18 13 17 18 21 23 21 21 20
8 13 10 16 12 10 11 14 17 19 14 13 9 25 27 5 8 11 13 31 35 35 34 32 27 23 19 22 24 22 20 20 29 33 28 30 30 30 31 29 25 22 22 24 23 18 20 19 18 20 20 20 23 20
7 10 17 19 12 15 11 17 24 8 10 10 9 17 8 9 10 2 11 36 35 31 33 31 24 23 22 22 19 17 18 17 18 20 24 26 24 22 22 24 27 26 24 24 25 26 28 23 20 21 20 19 17 22
11 8 13 19 21 14 10 13 6 7 6 9 11 8 6 5 1 3 12 24 32 30 28 25 25 22 21 27 25 25 20 19 12 17 17 19 17 20 21 19 20 20 23 24 23 19 21 22 24 24 23 21 18 17
9 14 16 17 15 10 11 11 9 6 7 7 5 5 3 16 23 16 21 26 29 27 24 21 21 20 19 21 20 25 25 23 18 26 21 24 25 23 22 22 19 18 21 18 26 29 23 26 26 25 23 22 18 16
13 17 10 9 14 13 26 13 12 14 13 16 6 5 10 20 17 13 31 26 26 24 21 26 22 20 22 23 21 19 21 20 23 29 28 27 26 23 23 23 17 17 17 16 14 27 30 27 28 24 21 20 18 17
7 24 12 10 17 29 31 16 15 15 11 14 4 9 10 15 16 18 23 16 15 17 18 17 17 17 17 19 22 25 22 24 26 25 25 24 22 22 27 27 21 20 20 19 18 15 19 27 24 26 24 22 18 17
10 11 13 10 16 18 16 15 11 10 5 7 7 16 17 9 11 9 7 6 5 8 10 12 14 17 18 23 20 21 20 20 25 29 28 24 18 25 26 23 21 21 22 21 21 18 21 25 24 25 24 22 20 19
21 20 22 13 14 14 15 12 10 6 4 5 6 10 8 9 6 7 8 4 7 8 10 5 6 8 12 10 25 21 24 22 24 26 29 23 24 23 16 16 20 23 24 24 23 22 23 26 26 26 26 26 27 26
Wind_Direction_500mb
305 307 315 312 310 306 308 315 324 328 331 330 334 337 334 334 338 335 322 316 295 280 295 278 293 299 306 316 318 326 337 12 318 5 2 352 342 4 357 41 342 12 334 16 327 80 37 344 329 47 126 126 128 125
293 305 308 308 304 302 305 311 315 325 325 323 328 333 330 326 328 327 321 314 308 290 276 298 295 296 273 290 288 315 303 304 334 330 357 317 350 344 358 18 9 28 354 27 31 53 311 341 9 101 125 119 119 109
291 301 300 305 301 302 298 308 313 315 318 319 325 327 322 320 321 315 307 307 311 294 313 298 355 325 339 317 315 297 281 292 287 304 310 314 1 327 3 33 24 358 13 53 195 352 18 21 39 60 103 113 122 125
287 293 297 298 303 307 301 303 298 311 317 317 319 323 318 316 319 314 303 291 298 295 286 295 322 314 314 279 352 341 297 294 328 305 289 344 355 22 40 57 45 350 309 352 84 0 321 25 38 62 82 99 108 110
285 288 291 298 300 302 295 287 302 309 311 318 318 316 315 315 314 310 320 256 275 293 303 297 312 337 336 297 341 3 9 4 266 46 31 31 6 338 83 62 32 350 331 351 51 15 66 38 58 78 91 90 98 104
281 285 284 289 291 287 286 293 299 308 315 314 310 312 311 308 313 329 301 240 267 266 312 305 315 314 333 357 93 3 46 43 51 52 43 33 0 295 57 58 3 19 54 70 84 97 97 84 81 84 96 94 97 100
280 277 280 285 277 276 282 290 302 307 309 309 306 307 307 297 278 228 318 334 292 286 279 288 287 9 340 314 161 74 44 48 50 58 47 60 46 73 52 49 5 54 63 76 85 95 82 94 85 97 100 97 97 97
270 273 277 273 268 269 277 293 304 306 303 303 305 304 297 273 257 263 268 278 286 263 250 275 297 322 350 326 342 163 107 67 40 63 56 38 44 69 54 28 80 77 77 77 82 92 100 98 94 93 93 96 97 97
274 264 260 257 257 263 272 296 301 302 303 306 304 291 263 227 227 217 272 292 269 254 299 274 307 322 327 335 343 354 106 72 82 66 49 50 25 55 71 76 101 90 85 92 81 80 93 100 104 106 104 103 102 102
262 252 246 243 248 259 286 296 303 303 317 335 313 253 220 143 252 312 301 195 212 214 228 257 308 302 348 336 336 331 97 37 107 98 90 45 28 37 24 18 38 106 116 124 120 116 109 100 101 102 106 107 105 103
242 241 236 240 234 252 274 292 293 323 48 338 271 316 328 308 295 249 271 232 195 221 215 251 312 310 324 333 330 306 322 98 123 172 109 107 65 344 14 29 39 48 72 98 105 106 108 110 115 114 107 105 105 106
226 225 222 217 232 255 270 286 282 233 273 281 272 279 287 220 206 250 240 221 201 246 225 309 340 315 314 297 277 287 310 108 88 156 112 102 144 177 152 76 63 71 84 92 100 104 107 109 110 110 109 110 110 112
207 209 200 211 228 241 264 282 269 266 286 359 320 254 216 220 220 231 211 247 16 271 22 351 331 315 309 289 272 263 333 45 112 83 66 126 160 171 176 154 123 110 105 106 107 107 109 109 110 111 113 114 118 114
200 191 204 215 226 249 269 263 228 224 90 226 213 263 221 212 232 224 348 40 50 354 341 327 320 297 296 288 268 289 121 322 110 103 103 146 165 165 162 149 138 127 121 117 115 116 115 114 113 113 114 116 117 119
189 192 204 217 245 264 250 215 204 176 222 242 233 232 224 245 243 316 1 13 8 322 329 312 297 248 267 274 286 350 296 147 33 118 140 148 156 155 160 151 138 135 129 124 122 121 119 119 119 119 122 125 126 122
189 197 206 219 236 230 213 194 201 176 235 235 245 261 272 287 235 237 88 0 314 291 294 241 271 270 244 260 244 271 4 31 78 155 144 148 154 158 151 150 147 138 132 130 127 125 124 126 128 128 126 124 125 126
166 181 221 218 214 212 190 157 186 222 235 234 240 239 255 263 287 236 81 289 147 293 294 285 246 217 279 237 225 40 55 86 125 142 146 148 150 152 155 154 146 140 134 131 129 128 128 130 131 134 135 136 133 133
150 223 234 216 184 160 170 175 220 232 239 244 254 262 273 272 230 207 234 319 340 306 246 247 314 268 266 260 212 126 119 116 138 155 151 158 159 158 157 156 151 143 139 135 135 133 133 135 135 139 140 141 137 135
143 207 205 199 171 155 186 214 226 255 241 254 244 230 233 237 229 217 244 197 258 342 281 270 254 249 265 349 124 147 141 149 157 152 155 158 161 163 162 160 151 145 145 143 143 142 141 138 138 141 145 146 150 152
190 213 238 196 179 180 215 213 198 264 261 265 249 246 249 245 205 214 228 207 199 244 276 247 273 329 286 60 20 142 139 146 159 157 154 164 163 164 163 159 154 150 152 156 157 152 144 139 142 155 165 163 165 168
172 191 181 174 193 231 273 254 218 269 274 276 259 245 243 240 214 203 199 190 185 224 257 263 272 277 143 146 228 210 192 172 171 170 169 166 167 165 163 161 161 162 165 172 175 171 177 166 161 167 170 165 175 171
178 176 159 171 207 225 250 231 250 311 268 267 278 258 247 239 226 206 180 201 228 224 228 229 232 173 147 116 196 207 200 184 169 170 170 165 163 164 167 174 177 178 175 186 183 183 193 175 172 168 172 166 170 176
148 164 196 203 225 221 255 230 237 237 246 275 238 246 259 249 215 180 198 215 223 213 206 209 169 146 130 133 147 159 169 164 167 167 163 165 172 173 174 180 181 183 186 196 194 204 163 152 167 173 176 169 178 183
163 184 214 207 204 244 232 205 206 237 249 231 215 248 247 242 206 196 241 206 198 176 173 172 161 141 150 152 144 146 160 159 150 166 168 169 166 174 180 182 191 188 190 195 193 158 151 175 190 187 189 189 190 188
178 222 208 247 230 230 239 219 218 222 236 235 241 245 263 183 198 234 217 185 169 166 168 180 174 182 166 165 173 154 154 155 168 172 179 176 174 182 188 193 192 189 183 187 182 166 167 179 183 191 196 197 198 201
211 216 199 205 201 207 225 225 215 210 226 246 243 231 250 205 230 230 218 163 160 167 170 172 184 182 165 165 161 171 178 177 167 165 176 177 181 184 185 178 171 183 188 188 183 182 189 192 194 196 199 203 204 204
230 234 205 229 229 230 251 264 272 233 208 231 251 245 210 237 227 358 145 172 151 159 168 174 188 184 183 171 164 154 144 165 179 180 184 177 188 181 178 182 188 189 189 196 201 199 193 192 202 202 204 206 212 210
246 278 226 217 219 224 257 272 260 249 234 245 216 228 232 256 34 169 89 104 138 148 158 172 180 188 188 180 176 167 177 176 175 166 176 167 167 173 179 184 186 186 200 210 213 208 205 203 205 206 206 208 210 216
235 239 252 232 232 209 249 258 255 261 321 311 246 253 273 105 130 173 133 137 141 149 158 160 156 155 155 165 174 183 170 174 175 177 189 176 176 180 176 179 191 193 193 213 220 217 212 213 207 208 208 209 215 222
230 196 235 265 242 223 229 225 295 299 304 301 214 310 141 135 129 143 130 137 148 163 157 161 162 156 168 170 177 184 184 181 185 187 188 189 194 195 195 194 187 184 188 197 198 207 205 204 202 194 194 203 212 220
245 195 215 208 241 237 245 256 259 263 265 277 277 147 138 139 107 98 102 127 129 137 161 169 185 193 202 191 188 184 192 194 192 193 195 201 203 201 199 198 194 193 191 193 191 195 193 192 196 198 203 210 218 221
224 223 233 239 233 241 244 259 250 240 244 222 169 146 179 166 137 132 121 137 164 169 171 189 197 207 208 210 210 204 207 203 203 207 204 198 215 209 195 195 197 195 196 197 198 197 194 189 196 201 209 216 225 233
215 219 231 266 260 230 214 212 215 188 144 155 171 173 138 151 127 130 117 139 152 154 155 157 138 187 197 202 206 216 212 211 215 213 209 210 187 172 181 193 194 197 201 201 202 202 201 203 207 208 219 224 225 228
Wind_Speed_850mb
59 55 52 54 52 49 45 42 40 41 43 41 37 39 37 34 32 31 28 21 21 21 55 24 30 57 50 44 15 40 20 8 8 16 10 9 8 11 8 8 15 13 12 9 6 9 8 54 34 11 25 60 42 54
55 54 54 56 53 49 44 40 39 40 44 39 37 37 37 34 33 29 23 24 35 36 57 52 35 36 42 33 38 17 14 14 10 6 7 6 6 8 15 9 20 11 13 7 14 7 17 38 35 43 53 72 49 59
55 56 56 57 56 52 43 41 39 41 41 39 38 36 36 34 33 31 35 22 30 31 45 24 24 22 12 19 25 9 7 10 9 13 7 5 5 7 10 12 9 21 40 8 4 11 25 56 68 64 60 65 62 62
60 55 59 57 52 52 39 37 40 44 41 38 37 35 36 34 34 30 29 11 23 23 10 24 33 24 22 16 14 25 28 24 20 10 4 5 6 20 8 12 13 13 24 10 6 11 17 56 53 52 70 67 67 63
60 65 53 53 49 40 37 39 41 42 40 38 36 34 32 33 29 26 13 6 21 14 12 34 41 17 22 8 8 23 17 16 5 3 5 6 8 7 11 9 15 22 9 8 6 13 21 26 37 50 78 66 63 67
65 60 49 50 43 35 40 37 38 38 38 35 33 33 30 26 18 12 5 12 17 19 13 9 26 21 25 11 5 22 13 17 29 11 11 9 20 3 8 7 18 31 31 4 9 39 43 47 50 51 67 64 61 61
62 55 55 44 36 35 34 34 34 36 35 30 30 30 24 19 14 11 1 1 7 18 8 13 11 25 23 11 5 24 21 28 17 12 9 12 30 20 6 7 23 24 21 29 33 38 37 36 38 54 65 59 59 54
63 56 40 37 36 30 30 28 33 34 30 26 29 25 16 9 9 10 12 10 14 13 10 8 10 21 19 30 8 17 10 14 32 12 21 23 17 17 10 14 20 32 42 44 39 44 50 48 46 49 49 47 48 49
55 47 37 35 31 30 25 26 30 31 24 23 20 13 6 9 9 9 19 22 14 13 12 7 9 10 31 38 22 4 13 1 12 16 15 12 12 10 10 19 22 26 29 33 33 34 33 35 36 36 35 36 41 40
59 42 35 33 29 25 22 24 28 22 15 9 6 3 10 4 10 19 7 8 11 13 13 10 21 21 30 31 15 22 15 2 4 7 17 10 8 16 17 15 16 19 28 27 30 30 30 28 29 30 30 32 35 34
39 39 36 29 24 20 21 20 20 11 8 9 7 3 5 13 4 5 8 10 10 8 12 14 20 20 30 15 14 10 2 6 3 8 7 6 3 10 15 20 22 24 28 29 29 31 34 32 33 32 31 30 30 29
38 38 30 27 21 18 18 19 15 4 8 9 13 17 10 7 8 9 8 9 12 4 8 9 15 24 13 10 6 9 4 4 5 15 6 7 8 18 6 7 15 20 23 25 26 29 29 29 28 30 30 29 28 28
36 34 30 23 19 18 17 18 15 7 8 3 6 6 10 10 1 12 11 4 3 5 6 15 12 18 8 8 9 5 5 5 5 5 5 8 38 31 21 17 15 16 20 24 26 26 27 27 26 27 29 28 26 25
36 30 25 23 20 16 18 17 11 3 4 6 11 7 9 11 12 11 6 7 10 13 14 17 19 5 12 6 6 6 2 1 5 4 5 19 45 38 30 24 22 21 21 23 24 24 25 25 26 25 25 25 26 27
33 30 26 20 13 15 13 13 9 7 4 8 12 8 15 21 10 10 11 7 6 8 12 12 12 8 7 7 6 6 5 1 5 5 13 44 48 45 39 32 26 24 23 22 21 22 23 23 24 24 23 23 24 25
30 25 22 14 12 13 13 10 7 8 7 10 14 17 22 8 12 11 4 4 3 5 12 8 5 6 6 5 6 4 4 5 4 6 39 52 47 43 41 33 26 24 22 23 21 21 22 21 22 24 23 22 23 23
25 11 15 14 13 13 14 14 11 10 10 11 15 25 29 15 11 14 5 9 1 5 3 8 7 6 5 5 2 4 2 6 14 31 50 48 49 48 45 36 27 25 24 22 22 22 23 23 23 23 24 23 22 20
12 18 18 13 15 8 8 13 10 12 15 23 21 21 21 14 14 6 7 6 7 7 8 5 10 5 5 2 1 6 10 14 20 33 46 52 47 48 42 36 31 27 25 23 23 25 23 22 21 21 23 23 21 20
25 23 17 16 22 17 11 11 16 11 20 26 25 20 17 16 14 12 10 5 4 2 7 8 8 6 3 2 10 8 12 15 28 33 38 41 40 41 40 38 34 30 25 24 23 21 19 15 15 18 18 19 16 17
32 27 17 15 25 8 9 10 14 14 12 13 20 21 21 22 13 10 17 9 6 4 5 6 4 6 2 2 3 7 8 25 37 32 29 34 40 43 42 40 35 32 25 20 18 20 16 15 14 14 15 16 14 16
18 10 14 17 10 9 8 8 10 13 18 21 17 20 21 18 29 20 15 16 11 7 6 14 10 4 3 4 6 13 13 23 38 40 48 40 43 44 44 38 36 31 27 23 20 19 18 17 17 13 15 15 14 16
14 8 10 11 8 8 13 18 14 8 11 22 21 18 22 21 19 24 19 16 10 19 18 14 10 7 10 9 4 11 16 22 26 33 44 47 47 48 45 44 42 33 24 23 21 19 17 21 19 16 17 16 16 16
14 16 8 12 11 12 12 16 17 20 8 6 20 23 16 24 17 22 9 22 23 19 17 17 12 22 12 10 8 11 21 26 28 36 40 43 39 38 40 39 33 27 27 24 19 22 17 24 24 16 18 17 20 15
18 9 8 12 19 10 12 14 12 15 14 18 9 14 21 7 8 12 11 13 15 23 18 19 22 21 20 17 15 20 21 20 24 30 37 40 39 35 32 33 32 25 24 22 18 21 13 13 14 22 22 19 21 17
7 10 9 9 12 11 9 14 20 14 18 18 17 12 17 11 7 9 13 19 31 28 29 23 23 24 21 22 18 18 24 24 33 28 35 31 28 29 30 26 28 25 25 24 22 18 13 17 18 21 23 21 21 20
8 13 10 16 12 10 11 14 17 19 14 13 9 25 27 5 8 11 13 31 35 35 34 32 27 23 19 22 24 22 20 20 29 33 28 30 30 30 31 29 25 22 22 24 23 18 20 19 18 20 20 20 23 20
7 10 17 19 12 15 11 17 24 8 10 10 9 17 8 9 10 2 11 36 35 31 33 31 24 23 22 22 19 17 18 17 18 20 24 26 24 22 22 24 27 26 24 24 25 26 28 23 20 21 20 19 17 22
11 8 13 19 21 14 10 13 6 7 6 9 11 8 6 5 1 3 12 24 32 30 28 25 25 22 21 27 25 25 20 19 12 17 17 19 17 20 21 19 20 20 23 24 23 19 21 22 24 24 23 21 18 17
9 14 16 17 15 10 11 11 9 6 7 7 5 5 3 16 23 16 21 26 29 27 24 21 21 20 19 21 20 25 25 23 18 26 21 24 25 23 22 22 19 18 21 18 26 29 23 26 26 25 23 22 18 16
13 17 10 9 14 13 26 13 12 14 13 16 6 5 10 20 17 13 31 26 26 24 21 26 22 20 22 23 21 19 21 20 23 29 28 27 26 23 23 23 17 17 17 16 14 27 30 27 28 24 21 20 18 17
7 24 12 10 17 29 31 16 15 15 11 14 4 9 10 15 16 18 23 16 15 17 18 17 17 17 17 19 22 25 22 24 26 25 25 24 22 22 27 27 21 20 20 19 18 15 19 27 24 26 24 22 18 17
10 11 13 10 16 18 16 15 11 10 5 7 7 16 17 9 11 9 7 6 5 8 10 12 14 17 18 23 20 21 20 20 25 29 28 24 18 25 26 23 21 21 22 21 21 18 21 25 24 25 24 22 20 19
21 20 22 13 14 14 15 12 10 6 4 5 6 10 8 9 6 7 8 4 7 8 10 5 6 8 12 10 25 21 24 22 24 26 29 23 24 23 16 16 20 23 24 24 23 22 23 26 26 26 26 26 27 26
Wind_Direction_850mb
305 307 315 312 310 306 308 315 324 328 331 330 334 337 334 334 338 335 322 316 295 280 295 278 293 299 306 316 318 326 337 12 318 5 2 352 342 4 357 41 342 12 334 16 327 80 37 344 329 47 126 126 128 125
293 305 308 308 304 302 305 311 315 325 325 323 328 333 330 326 328 327 321 314 308 290 276 298 295 296 273 290 288 315 303 304 334 330 357 317 350 344 358 18 9 28 354 27 31 53 311 341 9 101 125 119 119 109
291 301 300 305 301 302 298 308 313 315 318 319 325 327 322 320 321 315 307 307 311 294 313 298 355 325 339 317 315 297 281 292 287 304 310 314 1 327 3 33 24 358 13 53 195 352 18 21 39 60 103 113 122 125
287 293 297 298 303 307 301 303 298 311 317 317 319 323 318 316 319 314 303 291 298 295 286 295 322 314 314 279 352 341 297 294 328 305 289 344 355 22 40 57 45 350 309 352 84 0 321 25 38 62 82 99 108 110
285 288 291 298 300 302 295 287 302 309 311 318 318 316 315 315 314 310 320 256 275 293 303 297 312 337 336 297 341 3 9 4 266 46 31 31 6 338 83 62 32 350 331 351 51 15 66 38 58 78 91 90 98 104
281 285 284 289 291 287 286 293 299 308 315 314 310 312 311 308 313 329 301 240 267 266 312 305 315 314 333 357 93 3 46 43 51 52 43 33 0 295 57 58 3 19 54 70 84 97 97 84 81 84 96 94 97 100
280 277 280 285 277 276 282 290 302 307 309 309 306 307 307 297 278 228 318 334 292 286 279 288 287 9 340 314 161 74 44 48 50 58 47 60 46 73 52 49 5 54 63 76 85 95 82 94 85 97 100 97 97 97
270 273 277 273 268 269 277 293 304 306 303 303 305 304 297 273 257 263 268 278 286 263 250 275 297 322 350 326 342 163 107 67 40 63 56 38 44 69 54 28 80 77 77 77 82 92 100 98 94 93 93 96 97 97
274 264 260 257 257 263 272 296 301 302 303 306 304 291 263 227 227 217 272 292 269 254 299 274 307 322 327 335 343 354 106 72 82 66 49 50 25 55 71 76 101 90 85 92 81 80 93 100 104 106 104 103 102 102
262 252 246 243 248 259 286 296 303 303 317 335 313 253 220 143 252 312 301 195 212 214 228 257 308 302 348 336 336 331 97 37 107 98 90 45 28 37 24 18 38 106 116 124 120 116 109 100 101 102 106 107 105 103
242 241 236 240 234 252 274 292 293 323 48 338 271 316 328 308 295 249 271 232 195 221 215 251 312 310 324 333 330 306 322 98 123 172 109 107 65 344 14 29 39 48 72 98 105 106 108 110 115 114 107 105 105 106
226 225 222 217 232 255 270 286 282 233 273 281 272 279 287 220 206 250 240 221 201 246 225 309 340 315 314 297 277 287 310 108 88 156 112 102 144 177 152 76 63 71 84 92 100 104 107 109 110 110 109 110 110 112
207 209 200 211 228 241 264 282 269 266 286 359 320 254 216 220 220 231 211 247 16 271 22 351 331 315 309 289 272 263 333 45 112 83 66 126 160 171 176 154 123 110 105 106 107 107 109 109 110 111 113 114 118 114
200 191 204 215 226 249 269 263 228 224 90 226 213 263 221 212 232 224 348 40 50 354 341 327 320 297 296 288 268 289 121 322 110 103 103 146 165 165 162 149 138 127 121 117 115 116 115 114 113 113 114 116 117 119
189 192 204 217 245 264 250 215 204 176 222 242 233 232 224 245 243 316 1 13 8 322 329 312 297 248 267 274 286 350 296 147 33 118 140 148 156 155 160 151 138 135 129 124 122 121 119 119 119 119 122 125 126 122
189 197 206 219 236 230 213 194 201 176 235 235 245 261 272 287 235 237 88 0 314 291 294 241 271 270 244 260 244 271 4 31 78 155 144 148 154 158 151 150 147 138 132 130 127 125 124 126 128 128 126 124 125 126
166 181 221 218 214 212 190 157 186 222 235 234 240 239 255 263 287 236 81 289 147 293 294 285 246 217 279 237 225 40 55 86 125 142 146 148 150 152 155 154 146 140 134 131 129 128 128 130 131 134 135 136 133 133
150 223 234 216 184 160 170 175 220 232 239 244 254 262 273 272 230 207 234 319 340 306 246 247 314 268 266 260 212 126 119 116 138 155 151 158 159 158 157 156 151 143 139 135 135 133 133 135 135 139 140 141 137 135
143 207 205 199 171 155 186 214 226 255 241 254 244 230 233 237 229 217 244 197 258 342 281 270 254 249 265 349 124 147 141 149 157 152 155 158 161 163 162 160 151 145 145 143 143 142 141 138 138 141 145 146 150 152
190 213 238 196 179 180 215 213 198 264 261 265 249 246 249 245 205 214 228 207 199 244 276 247 273 329 286 60 20 142 139 146 159 157 154 164 163 164 163 159 154 150 152 156 157 152 144 139 142 155 165 163 165 168
172 191 181 174 193 231 273 254 218 269 274 276 259 245 243 240 214 203 199 190 185 224 257 263 272 277 143 146 228 210 192 172 171 170 169 166 167 165 163 161 161 162 165 172 175 171 177 166 161 167 170 165 175 171
178 176 159 171 207 225 250 231 250 311 268 267 278 258 247 239 226 206 180 201 228 224 228 229 232 173 147 116 196 207 200 184 169 170 170 165 163 164 167 174 177 178 175 186 183 183 193 175 172 168 172 166 170 176
148 164 196 203 225 221 255 230 237 237 246 275 238 246 259 249 215 180 198 215 223 213 206 209 169 146 130 133 147 159 169 164 167 167 163 165 172 173 174 180 181 183 186 196 194 204 163 152 167 173 176 169 178 183
163 184 214 207 204 244 232 205 206 237 249 231 215 248 247 242 206 196 241 206 198 176 173 172 161 141 150 152 144 146 160 159 150 166 168 169 166 174 180 182 191 188 190 195 193 158 151 175 190 187 189 189 190 188
178 222 208 247 230 230 239 219 218 222 236 235 241 245 263 183 198 234 217 185 169 166 168 180 174 182 166 165 173 154 154 155 168 172 179 176 174 182 188 193 192 189 183 187 182 166 167 179 183 191 196 197 198 201
211 216 199 205 201 207 225 225 215 210 226 246 243 231 250 205 230 230 218 163 160 167 170 172 184 182 165 165 161 171 178 177 167 165 176 177 181 184 185 178 171 183 188 188 183 182 189 192 194 196 199 203 204 204
230 234 205 229 229 230 251 264 272 233 208 231 251 245 210 237 227 358 145 172 151 159 168 174 188 184 183 171 164 154 144 165 179 180 184 177 188 181 178 182 188 189 189 196 201 199 193 192 202 202 204 206 212 210
246 278 226 217 219 224 257 272 260 249 234 245 216 228 232 256 34 169 89 104 138 148 158 172 180 188 188 180 176 167 177 176 175 166 176 167 167 173 179 184 186 186 200 210 213 208 205 203 205 206 206 208 210 216
235 239 252 232 232 209 249 258 255 261 321 311 246 253 273 105 130 173 133 137 141 149 158 160 156 155 155 165 174 183 170 174 175 177 189 176 176 180 176 179 191 193 193 213 220 217 212 213 207 208 208 209 215 222
230 196 235 265 242 223 229 225 295 299 304 301 214 310 141 135 129 143 130 137 148 163 157 161 162 156 168 170 177 184 184 181 185 187 188 189 194 195 195 194 187 184 188 197 198 207 205 204 202 194 194 203 212 220
245 195 215 208 241 237 245 256 259 263 265 277 277 147 138 139 107 98 102 127 129 137 161 169 185 193 202 191 188 184 192 194 192 193 195 201 203 201 199 198 194 193 191 193 191 195 193 192 196 198 203 210 218 221
224 223 233 239 233 241 244 259 250 240 244 222 169 146 179 166 137 132 121 137 164 169 171 189 197 207 208 210 210 204 207 203 203 207 204 198 215 209 195 195 197 195 196 197 198 197 194 189 196 201 209 216 225 233
215 219 231 266 260 230 214 212 215 188 144 155 171 173 138 151 127 130 117 139 152 154 155 157 138 187 197 202 206 216 212 211 215 213 209 210 187 172 181 193 194 197 201 201 202 202 201 203 207 208 219 224 225 228